SQ5DN-4 Weather Reports


Display with metric or nautical units.
time (UTC)temp
F
wind
direction
speed
MPH
gust
MPH
rain 1hr
in
rain 24hr
in
rain mn
in
humidity
%
barometer
mb
20260504184247 69 0.0 0.0 0.00 0.00 0.00 43 1007.0
20260504183322 69 0.0 0.0 0.00 0.00 0.00 44 1007.0
20260504182507 71 0.0 0.0 0.00 0.00 0.00 42 1007.0
20260504181602 73 0.0 0.0 0.00 0.00 0.00 40 1006.0
20260504180722 74 0.0 0.0 0.00 0.00 0.00 38 1006.0
20260504175832 74 0.0 0.0 0.00 0.00 0.00 37 1006.0
20260504174907 74 0.0 0.0 0.00 0.00 0.00 37 1006.0
20260504173916 75 0.0 0.0 0.00 0.00 0.00 36 1006.0
20260504172932 76 0.0 0.0 0.00 0.00 0.00 35 1006.0
20260504172120 77 0.0 0.0 0.00 0.00 0.00 34 1006.0
20260504171152 78 0.0 0.0 0.00 0.00 0.00 34 1006.0
20260504170302 78 0.0 0.0 0.00 0.00 0.00 34 1006.0
20260504150553 82 0.0 0.0 0.00 0.00 0.00 31 1007.0
20260504140836 82 0.0 0.0 0.00 0.00 0.00 29 1007.0
20260504130456 82 0.0 0.0 0.00 0.00 0.00 31 1008.0
20260504100236 78 0.0 0.0 0.00 0.00 0.00 32 1009.0
20260504081436 74 0.0 0.0 0.00 0.00 0.00 33 1009.0
20260504080442 74 0.0 0.0 0.00 0.00 0.00 34 1009.0
20260504050126 63 0.0 0.0 0.00 0.00 0.00 41 1009.0
20260504045312 63 0.0 0.0 0.00 0.00 0.00 42 1009.0
20260504044442 62 0.0 0.0 0.00 0.00 0.00 44 1009.0
20260504043522 61 0.0 0.0 0.00 0.00 0.00 46 1009.0
20260504042627 59 0.0 0.0 0.00 0.00 0.00 48 1009.0
20260504041627 58 0.0 0.0 0.00 0.00 0.00 49 1009.0
20260504040816 58 0.0 0.0 0.00 0.00 0.00 49 1009.0
20260504035836 58 0.0 0.0 0.00 0.00 0.00 50 1009.0
20260504034956 56 0.0 0.0 0.00 0.00 0.00 53 1009.0
20260504033956 55 0.0 0.0 0.00 0.00 0.00 55 1009.0
20260504033122 55 0.0 0.0 0.00 0.00 0.00 54 1009.0
20260504032322 55 0.0 0.0 0.00 0.00 0.00 55 1009.0
20260504031347 53 0.0 0.0 0.00 0.00 0.00 57 1009.0
20260504030437 54 0.0 0.0 0.00 0.00 0.00 55 1009.0
20260504025456 55 0.0 0.0 0.00 0.00 0.00 54 1009.0
20260504024642 54 0.0 0.0 0.00 0.00 0.00 55 1009.0
20260504023839 54 0.0 0.0 0.00 0.00 0.00 55 1009.0
20260504022927 54 0.0 0.0 0.00 0.00 0.00 56 1009.0
20260504021942 54 0.0 0.0 0.00 0.00 0.00 57 1009.0
20260504021106 53 0.0 0.0 0.00 0.00 0.00 58 1009.0
20260504020152 53 0.0 0.0 0.00 0.00 0.00 60 1009.0
20260504015346 51 0.0 0.0 0.00 0.00 0.00 62 1009.0
20260504014506 51 0.0 0.0 0.00 0.00 0.00 62 1009.0
20260504013707 51 0.0 0.0 0.00 0.00 0.00 62 1009.0
20260504012852 53 0.0 0.0 0.00 0.00 0.00 60 1009.0
20260504011932 54 0.0 0.0 0.00 0.00 0.00 58 1010.0
20260504010936 55 0.0 0.0 0.00 0.00 0.00 58 1010.0
20260504010047 55 0.0 0.0 0.00 0.00 0.00 57 1009.0
20260504005216 56 0.0 0.0 0.00 0.00 0.00 57 1009.0
20260504004247 56 0.0 0.0 0.00 0.00 0.00 55 1009.0
20260504003322 56 0.0 0.0 0.00 0.00 0.00 55 1009.0
20260504002342 57 0.0 0.0 0.00 0.00 0.00 54 1009.0
20260504001527 57 0.0 0.0 0.00 0.00 0.00 54 1009.0
20260504000542 58 0.0 0.0 0.00 0.00 0.00 53 1010.0
20260503235642 58 0.0 0.0 0.00 0.00 0.00 53 1010.0
20260503234825 58 0.0 0.0 0.00 0.00 0.00 52 1010.0
20260503234007 59 0.0 0.0 0.00 0.00 0.00 51 1010.0
20260503233036 56 0.0 0.0 0.00 0.00 0.00 53 1010.0
20260503232216 55 0.0 0.0 0.00 0.00 0.00 56 1010.0
20260503231232 55 0.0 0.0 0.00 0.00 0.00 56 1010.0
20260503230352 55 0.0 0.0 0.00 0.00 0.00 56 1010.0
20260503225522 56 0.0 0.0 0.00 0.00 0.00 54 1010.0
20260503224522 57 0.0 0.0 0.00 0.00 0.00 52 1010.0
20260503223607 58 0.0 0.0 0.00 0.00 0.00 50 1010.0
20260503222736 58 0.0 0.0 0.00 0.00 0.00 50 1010.0
20260503221842 58 0.0 0.0 0.00 0.00 0.00 49 1010.0
20260503220912 59 0.0 0.0 0.00 0.00 0.00 49 1010.0
20260503220052 60 0.0 0.0 0.00 0.00 0.00 48 1010.0
20260503215239 60 0.0 0.0 0.00 0.00 0.00 47 1010.0
20260503214302 60 0.0 0.0 0.00 0.00 0.00 47 1010.0
20260503213337 60 0.0 0.0 0.00 0.00 0.00 47 1010.0
20260503212426 60 0.0 0.0 0.00 0.00 0.00 46 1010.0
20260503211447 60 0.0 0.0 0.00 0.00 0.00 46 1010.0
20260503210612 61 0.0 0.0 0.00 0.00 0.00 45 1010.0
20260503205756 61 0.0 0.0 0.00 0.00 0.00 45 1010.0
20260503204916 62 0.0 0.0 0.00 0.00 0.00 44 1010.0
20260503203927 62 0.0 0.0 0.00 0.00 0.00 43 1010.0
20260503202932 62 0.0 0.0 0.00 0.00 0.00 43 1010.0
20260503201947 64 0.0 0.0 0.00 0.00 0.00 41 1010.0
20260503200956 65 0.0 0.0 0.00 0.00 0.00 40 1010.0
20260503200016 65 0.0 0.0 0.00 0.00 0.00 40 1010.0
20260503195212 65 0.0 0.0 0.00 0.00 0.00 40 1010.0
20260503194256 66 0.0 0.0 0.00 0.00 0.00 39 1010.0
20260503193321 66 0.0 0.0 0.00 0.00 0.00 38 1010.0
20260503192407 67 0.0 0.0 0.00 0.00 0.00 37 1010.0
20260503191457 67 0.0 0.0 0.00 0.00 0.00 37 1010.0
20260503190547 68 0.0 0.0 0.00 0.00 0.00 36 1009.0
20260503185746 68 0.0 0.0 0.00 0.00 0.00 36 1009.0
20260503184947 68 0.0 0.0 0.00 0.00 0.00 36 1009.0